FW6259 Weather Reports


Display with metric or nautical units.
time (UTC)temp
F
wind
direction
speed
MPH
gust
MPH
rain 1hr
in
rain 24hr
in
rain mn
in
humidity
%
barometer
mb
20260510120054 36 237 0.0 0.0 0.00 0.00 0.00 86 997.4
20260510114559 36 237 0.0 0.0 0.00 0.01 0.00 86 997.3
20260510113043 36 237 0.0 1.0 0.00 0.01 0.00 84 997.3
20260510111556 36 217 0.0 0.0 0.00 0.01 0.00 85 997.4
20260510110048 37 217 0.0 0.0 0.00 0.01 0.00 84 997.5
20260510104559 37 217 0.0 0.0 0.00 0.01 0.00 84 997.3
20260510103100 38 217 0.0 0.0 0.00 0.01 0.00 83 997.2
20260510101556 38 217 0.0 1.0 0.00 0.01 0.00 83 997.3
20260510100052 39 217 0.0 0.0 0.00 0.01 0.00 81 997.4
20260510094602 40 217 0.0 0.0 0.00 0.02 0.00 79 997.3
20260510093056 41 217 0.0 1.0 0.00 0.02 0.00 77 997.3
20260510091548 41 217 0.0 3.0 0.00 0.02 0.00 77 997.4
20260510090104 42 252 0.0 1.0 0.00 0.02 0.00 75 997.3
20260510084559 43 293 0.0 0.0 0.00 0.03 0.00 73 997.4
20260510083048 44 337 1.0 7.0 0.00 0.03 0.00 73 997.3
20260510081601 44 328 1.0 6.0 0.00 0.03 0.00 72 997.3
20260510080049 44 276 1.0 6.0 0.00 0.03 0.00 73 997.1
20260510074600 44 330 1.0 4.0 0.00 0.03 0.03 73 997.5
20260510073054 44 266 1.0 6.0 0.00 0.03 0.03 75 997.2
20260510071559 43 296 1.0 7.0 0.00 0.03 0.03 78 997.2
20260510070044 44 235 2.0 5.0 0.00 0.03 0.03 79 997.2
20260510064612 44 275 3.0 8.0 0.00 0.04 0.03 79 997.2
20260510063100 45 266 1.0 6.0 0.00 0.04 0.03 74 997.0
20260510061546 45 295 2.0 5.0 0.00 0.04 0.03 72 996.9
20260510060051 46 300 2.0 6.0 0.00 0.04 0.03 71 996.9
20260510054555 47 278 2.0 5.0 0.00 0.05 0.03 69 996.8
20260510053046 47 257 3.0 6.0 0.00 0.05 0.03 68 996.6
20260510051554 48 283 1.0 4.0 0.00 0.05 0.03 67 996.7
20260510050101 49 285 1.0 6.0 0.00 0.05 0.03 64 996.6
20260510044555 50 330 2.0 4.0 0.00 0.06 0.03 61 996.5
20260510043049 50 323 0.0 3.0 0.00 0.06 0.03 59 996.4
20260510041611 51 285 0.0 3.0 0.00 0.06 0.03 57 996.6
20260510040055 51 285 1.0 3.0 0.00 0.06 0.03 55 996.6
20260510034551 51 307 0.0 2.0 0.00 0.06 0.03 57 996.5
20260510033101 52 268 1.0 5.0 0.00 0.06 0.03 54 996.4
20260510031602 52 259 5.0 11.0 0.00 0.06 0.03 53 996.6
20260510030053 54 97 1.0 8.0 0.00 0.06 0.03 49 997.0
20260510024555 55 72 0.0 2.0 0.00 0.06 0.03 46 996.6
20260510023040 55 86 0.0 2.0 0.00 0.06 0.03 43 996.5
20260510021558 56 240 0.0 3.0 0.00 0.06 0.03 42 996.4
20260510020052 56 23 1.0 5.0 0.00 0.06 0.03 45 996.5
20260510014544 56 6 1.0 6.0 0.00 0.06 0.03 45 996.6
20260510013106 56 40 3.0 9.0 0.00 0.06 0.03 46 996.8
20260510011555 56 38 1.0 8.0 0.00 0.06 0.03 47 996.8
20260510010100 56 13 2.0 10.0 0.00 0.06 0.03 46 997.0
20260510004500 57 57 4.0 11.0 0.00 0.06 0.03 47 997.1
20260510003104 56 8 3.0 6.0 0.00 0.06 0.03 48 997.2
20260510001554 57 46 4.0 9.0 0.00 0.06 0.03 47 997.4
20260510000048 57 282 1.0 7.0 0.00 0.06 0.03 47 997.7
20260509234503 55 68 3.0 8.0 0.00 0.06 0.03 48 997.8
20260509233053 55 312 3.0 8.0 0.00 0.06 0.03 48 998.0
20260509231549 55 18 3.0 7.0 0.00 0.06 0.03 51 998.0
20260509230044 54 80 2.0 9.0 0.00 0.06 0.03 51 998.1
20260509224557 54 34 2.0 5.0 0.00 0.06 0.03 53 998.2
20260509223054 53 110 1.0 5.0 0.00 0.06 0.03 55 998.2
20260509221525 52 1 1.0 5.0 0.00 0.06 0.03 57 998.4
20260509220104 52 275 1.0 5.0 0.00 0.06 0.03 62 998.5
20260509214505 51 4 2.0 4.0 0.00 0.06 0.03 63 998.7
20260509213053 49 205 2.0 4.0 0.00 0.06 0.03 67 998.9
20260509211547 49 224 2.0 6.0 0.00 0.06 0.03 70 998.9
20260509210054 48 255 2.0 4.0 0.00 0.06 0.03 71 998.9
20260509204602 47 79 1.0 4.0 0.00 0.06 0.03 75 998.8
20260509203055 46 328 1.0 4.0 0.00 0.06 0.03 78 998.6
20260509201548 44 133 1.0 4.0 0.00 0.06 0.03 79 998.8
20260509200107 44 145 1.0 6.0 0.00 0.06 0.03 81 998.9
20260509194556 44 105 1.0 2.0 0.00 0.06 0.03 82 998.8
20260509193100 43 247 0.0 2.0 0.00 0.06 0.03 80 998.6
20260509191609 43 86 1.0 2.0 0.00 0.06 0.03 80 998.8
20260509190049 43 113 0.0 3.0 0.00 0.06 0.03 82 998.8
20260509184558 42 136 0.0 3.0 0.00 0.06 0.03 83 998.8
20260509183052 41 44 0.0 2.0 0.00 0.06 0.03 85 998.8
20260509181547 40 74 0.0 2.0 0.00 0.06 0.03 86 998.7
20260509180039 40 97 1.0 4.0 0.00 0.06 0.03 88 998.7
20260509174557 39 121 1.0 5.0 0.00 0.06 0.03 88 998.7
20260509173057 40 131 0.0 3.0 0.00 0.06 0.03 89 998.7
20260509171601 40 129 0.0 3.0 0.00 0.06 0.03 89 998.7
20260509170059 39 53 0.0 4.0 0.00 0.06 0.03 91 998.7
20260509164557 38 65 0.0 3.0 0.00 0.06 0.03 93 999.0
20260509163056 36 32 0.0 3.0 0.00 0.06 0.03 95 998.9
20260509161545 35 331 1.0 3.0 0.00 0.06 0.03 95 998.8
20260509160058 34 328 1.0 5.0 0.00 0.06 0.03 96 998.7
20260509154551 33 342 1.0 3.0 0.00 0.06 0.03 97 998.8
20260509153046 33 332 0.0 1.0 0.00 0.06 0.03 97 998.9
20260509151500 33 225 0.0 0.0 0.00 0.06 0.03 97 999.0
20260509150052 32 225 0.0 0.0 0.00 0.06 0.03 97 999.1
20260509144551 32 152 0.0 0.0 0.00 0.06 0.03 97 999.3
20260509143043 32 160 0.0 1.0 0.00 0.06 0.03 96 999.3
20260509141557 32 166 0.0 2.0 0.00 0.06 0.03 96 999.4
20260509140050 32 80 0.0 0.0 0.00 0.06 0.03 96 999.4
20260509134508 32 70 1.0 4.0 0.00 0.06 0.03 96 999.4
20260509133059 32 357 1.0 7.0 0.00 0.06 0.03 96 999.5
20260509131613 33 47 0.0 4.0 0.00 0.06 0.03 97 999.9
20260509130056 33 341 0.0 3.0 0.00 0.06 0.03 97 1000.0
20260509124502 33 38 0.0 4.0 0.00 0.06 0.03 97 1000.2
20260509123102 33 145 0.0 2.0 0.00 0.06 0.03 97 1000.6
20260509121551 33 359 0.0 1.0 0.01 0.06 0.03 97 1000.8